Location: *
(57.8420°S, 159.8600°W)
Time: 04:20:40
(UTC+00:00)

Meteor 1-31 Rocket - Pass Details

Date: 18 May 2021
Orbit: 521 x 545 km, 97.7° (Epoch: 20 June)

Event Time Altitude Azimuth Distance (km) Brightness Sun altitude
Exits shadow 03:11:05 - 159° (SSE) 2,693 5.9 -5.9°
Reaches altitude 10° 03:13:22 10° 148° (SSE) 1,811 4.9 -6.1°
Maximum altitude 03:16:52 31° 85° (E) 967 3.6 -6.6°
Drops below altitude 10° 03:20:18 10° 21° (NNE) 1,783 5.5 -7.0°
Sets 03:22:35 0° 10° (N) 2,664 6.5 -7.2°
